Regional Weather Roundup
Issued by NWS

Current Version | Previous Version | Text Only | Print | Product List | Glossary Off
Versions: 1 2 3 4 5 6 7 8 9 10 11 12 13 14 15 16 17 18 19 20 21 22 23 24 25 26 27

000
ASUS44 KJAN 260810
RWRMS

MISSISSIPPI HOURLY WEATHER ROUNDUP
NATIONAL WEATHER SERVICE JACKSON MS
300 AM CDT WED JUL 26 2017

NOTE: "FAIR: INDICATES FEW OR NO CLOUDS BELOW 12,000 FEET WITH NO
SIGNIFICANT WEATHER AND/OR OBSTRUCTIONS TO VISIBILITY.

MSZ001>002-007>008-010>013-018>021-025>028-034>036-260900-
NORTHWEST MISSISSIPPI

CITY           SKY/WX    TMP DP  RH WIND       PRES   REMARKS
BATESVILLE     FAIR      73  72  95 CALM      30.09F FOG
GREENWOOD      CLEAR     73  72  96 SW3       30.09S
GREENVILLE     CLEAR     74  71  91 S5        30.08F
OXFORD         FAIR      73  73 100 CALM      30.12S
TUNICA           N/A     73  73 100 S6        30.09S FOG
WINONA         FAIR      71  71 100 CALM      30.11S FOG
$$

MSZ003>006-009-014>017-022>024-029>033-037>039-260900-
NORTHEAST MISSISSIPPI

CITY           SKY/WX    TMP DP  RH WIND       PRES   REMARKS
COLUMBUS AFB   CLEAR     76  76 100 CALM      30.09S
CORINTH        FAIR      73  72  94 CALM      30.09S FOG
GOLDN TRIANGLE CLEAR     75  70  83 CALM      30.06S
STARKVILLE       N/A     72  72 100 CALM      30.11S FOG
TUPELO         CLEAR     75  72  90 CALM      30.09F
$$

MSZ040-058-260900-
CENTRAL MISSISSIPPI

CITY           SKY/WX    TMP DP  RH WIND       PRES   REMARKS
JACKSON INTL   MOCLDY    73  71  93 CALM      30.12S
JACKSON HAWKNS CLEAR     73  72  96 CALM      30.12S
MADISON        FAIR      70  70 100 CALM      30.11S
MERIDIAN KEY   PTCLDY    75  74  96 S3        30.11S
MERIDIAN NAS   CLEAR     75  70  84 CALM      30.11R
RAYMOND        FAIR      72  70  94 CALM      30.11S FOG
$$

MSZ059>079-260900-
SOUTH MISSISSIPPI

CITY           SKY/WX    TMP DP  RH WIND       PRES   REMARKS
COLUMBIA       FAIR      70  70 100 CALM      30.14S
HATTIESBURG    CLOUDY    73  73 100 CALM      30.12S
LAUREL         FAIR      72  72 100 CALM      30.11F
MCCOMB         CLOUDY    72  70  93 CALM      30.12S
NATCHEZ        CLEAR     73  72  96 S3        30.12S
PINE BELT      PTCLDY    72  72 100 CALM      30.12F FOG
$$

MSZ080>082-260900-
COASTAL MISSISSIPPI

CITY           SKY/WX    TMP DP  RH WIND       PRES   REMARKS
BILOXI         CLOUDY    76  74  95 CALM      30.09F
PASCAGOULA     CLOUDY    74  72  93 CALM      30.10S
GULFPORT       CLOUDY    76  75  97 W3        30.09F
$$

LAZ007>009-015>016-023>026-260900-
NORTHEAST LOUISIANA

CITY           SKY/WX    TMP DP  RH WIND       PRES   REMARKS
BASTROP        FAIR      74  73  98 CALM      30.10S
TALLULAH/VBURG CLEAR     72  71  97 CALM      30.10S
VIDALIA        FAIR      73  73 100 CALM      30.09F
$$




USA.gov is the U.S. government's official web portal to all federal, state and local government web resources and services.